SCP
0 0 0 0 0 0 0 0 0 0 0 0 0 0 0 0 0 0 0 0 0 0 0 0 0 0 0 0 0 0 0 0 0 0 0 0 0 0 0 0 0 0 0 0
0 0 0 0 0 0 0 0 0 0 0 0 0 0 0 0 0 0 0 0 0 0 0 0 0 0 0 0 0 0 0 0 0 0 0 0 0 0 0 0 0 0 0 0
0 0 0 0 0 0 0 0 0 0 0 0 0 0 0 0 0 0 0 0 0 0 0 0 0 0 0 0 0 0 0 0 0 0 0 0 0 0 0 0 0 0 0 0
0 0 0 0 0 0 0 0 0 0 0 0 0 0 0 0 0 0 0 0 0 0 0 0 0 0 0 0 0 0 0 0 0 0 0 0 0 0 0 0 0 0 0 0
0 0 0 0 0 0 0 0 0 0 0 0 0 0 0 0 0 0 0 0 0 0 0 0 0 0 0 0 0 0 0 0 0 0 0 0 0 0 0 0 0 0 0 0
0 -0 0 0 0 0 0 0 0 0 0 0 0 0 0 0 0 0 0 0 0 0 0 0 0 0 0 0 0 0 0 0 0 0 0 0 0 0 0 0 0 0 0 0
0 -0 0 0 0 0 0 0 0 0 0 0 0 0 0 0 0 0 0 0 0 0 0 0 0 0 0 0 0 0 0 0 0 0 0 0 0 0 0 0 0 0 0 0
0 -0 0 0 0 0 0 0 0 0 0 0 0 0 0 0 0 0 0 0 0 0 0 0 0 0 0 0 0 0 0 0 0 0 0 0 0 0 0 0 0 0 0 0
0 0 0 0 0 0 0 0 0 0 0 0 0 0 0 0 0 0 0 0 0 0 0 0 0 0 0 0 0 0 0 0 0 0 0 0 0 0 0 0 0 0 0 1
0 0 0 0 0 0 0 0 0 0 0 0 0 0 0 0 0 0 0 0 0 0 0 0 0 0 0 0 0 0 0 0 0 0 0 0 0 0 0 0 0 0 0 0
0 0 0 0 0 0 0 0 0 0 0 0 0 0 0 0 0 0 0 0 0 0 0 0 0 0 0 0 0 0 0 0 0 0 0 0 0 0 0 0 0 0 0 0
0 0 0 0 0 0 0 0 0 0 0 0 0 0 0 0 0 0 0 0 0 0 0 0 0 0 0 0 0 0 0 0 1 0 1 0 0 0 0 0 0 0 0 0
0 0 0 0 0 0 0 0 0 0 0 0 0 0 0 0 0 0 0 0 0 0 0 0 0 0 0 0 0 0 0 0 0 0 0 0 0 0 0 0 0 0 0 0
0 0 0 0 0 0 0 0 0 0 0 0 0 0 0 0 0 0 0 0 0 0 0 0 0 0 0 0 0 0 0 0 0 0 0 0 0 0 0 0 0 0 0 0
0 0 0 0 0 0 0 0 0 0 0 0 0 0 0 0 0 0 0 0 0 0 0 0 0 0 0 0 0 0 0 0 0 0 0 0 0 -0 0 0 -0 -0 0 -0
0 0 0 0 0 0 0 0 0 0 0 0 0 0 0 0 0 0 0 0 0 0 0 0 0 0 0 0 0 0 0 0 0 0 0 -0 0 -0 -0 -0 -0 -0 0 0
0 0 0 0 0 0 0 0 0 0 0 0 0 0 0 0 0 0 0 0 0 0 0 0 0 0 0 0 0 0 0 0 0 0 -0 -0 -0 0 0 -0 -0 -0 -0 0
0 0 0 0 0 0 0 0 0 0 0 0 0 0 0 0 0 0 0 0 0 0 0 0 0 0 0 0 0 0 0 0 0 0 0 0 0 0 0 0 0 0 0 0
0 0 0 0 0 0 0 0 0 0 0 0 0 0 0 0 0 0 0 0 0 0 0 0 0 0 0 0 0 0 0 0 0 0 0 0 0 0 0 0 0 0 0 0
0 0 0 0 0 0 0 0 0 0 0 0 0 0 0 0 0 0 0 0 0 0 0 0 0 0 0 0 0 0 0 0 0 0 0 0 0 0 0 0 0 0 0 0
0 0 0 0 0 0 0 0 0 0 0 0 0 0 0 0 0 0 0 0 0 0 0 0 0 0 0 0 0 0 0 0 0 0 0 0 -0 0 0 0 0 0 0 0
0 0 0 0 0 0 0 0 0 0 0 0 0 0 0 0 0 0 0 0 0 0 0 0 0 0 0 0 0 0 0 0 -0 -0 0 -0 -0 0 0 0 0 0 0 0
0 0 0 0 0 0 0 0 0 0 0 0 0 0 0 0 0 0 0 0 0 0 0 0 0 0 0 0 0 0 -0 -0 -0 -0 -0 -0 0 0 0 0 0 0 0 0
0 0 0 0 0 0 0 0 0 0 0 0 0 0 0 0 0 0 0 0 0 0 0 0 0 0 0 0 0 -0 -0 -0 -0 -0 0 0 0 0 0 0 0 0 0 0
0 0 0 0 0 0 0 0 0 0 0 0 0 0 0 0 0 0 0 0 0 0 0 0 0 0 0 0 -0 -0 -0 -0 0 0 0 0 0 0 0 0 0 0 0 0
0 0 0 0 0 0 0 0 0 0 0 0 0 0 0 0 0 0 0 0 0 0 0 0 0 0 0 0 0 0 0 0 0 0 0 0 0 0 0 0 0 0 0 0
0 0 0 0 0 0 0 0 0 0 0 0 0 0 0 0 0 0 0 0 0 0 0 0 0 0 0 0 0 0 0 0 0 0 0 0 0 0 0 0 0 0 0 0
Wind_Speed_500mb
59 56 56 52 42 32 24 11 10 6 25 16 11 17 13 3 11 9 5 7 6 2 4 12 11 17 9 5 9 12 4 6 11 12 11 5 14 20 7 14 19 17 17 23
64 54 55 52 43 37 23 13 9 12 13 12 15 11 19 10 12 11 5 4 3 1 5 6 18 20 11 6 4 4 8 5 12 19 17 11 4 4 6 4 7 21 19 18
60 58 56 51 44 39 29 13 11 11 16 7 11 15 16 19 16 17 11 8 6 6 9 3 18 23 9 10 11 7 2 2 11 18 16 9 9 6 11 10 13 17 17 24
58 56 56 52 46 41 27 12 5 2 12 19 16 11 5 21 14 19 15 13 16 7 10 15 16 20 21 11 9 4 4 9 10 11 13 14 17 20 18 18 21 25 25 30
63 63 57 53 49 43 19 12 7 9 10 8 23 15 19 17 16 12 21 21 19 16 9 3 18 18 12 7 10 4 0 7 11 19 11 14 19 23 26 26 26 24 26 27
62 63 59 57 52 43 14 13 13 7 17 14 18 20 17 13 8 19 10 23 15 20 14 2 15 11 11 8 7 7 5 4 10 20 6 15 23 10 13 20 23 26 27 31
70 64 60 58 54 47 16 26 11 9 12 14 14 12 13 13 14 8 10 17 17 8 15 22 21 18 16 13 11 5 6 6 5 12 10 21 19 16 12 22 24 28 30 34
76 68 63 60 56 47 26 21 10 8 8 11 11 13 8 11 12 18 10 6 1 16 18 18 18 13 11 8 6 2 7 8 4 9 11 13 14 18 17 19 19 27 29 32
79 67 64 59 52 44 30 24 18 5 6 11 5 6 2 5 12 15 11 6 8 16 14 12 18 15 9 11 12 4 6 7 11 5 9 7 16 17 25 17 21 45 43 38
82 80 64 63 55 40 31 23 16 7 7 1 1 1 4 2 4 5 10 5 11 5 13 13 12 8 4 9 9 9 10 9 14 9 10 4 15 28 28 13 15 51 31 45
76 74 68 57 47 39 31 21 16 14 8 3 2 3 5 4 5 2 8 8 6 9 7 7 6 6 5 6 4 4 8 7 9 5 10 13 32 5 16 21 34 22 18 26
84 84 63 53 57 40 29 20 24 22 7 5 7 4 2 3 5 6 6 7 6 6 3 3 4 4 7 6 8 6 7 6 8 7 10 14 18 19 16 18 17 32 23 25
82 81 62 52 40 46 38 27 26 18 7 15 8 3 2 1 5 4 6 8 4 6 1 4 4 4 6 9 5 4 8 4 5 6 14 21 18 20 26 25 43 37 30 28
78 71 72 61 59 44 38 22 28 19 6 7 9 9 3 3 4 9 11 12 14 8 4 2 0 3 4 2 5 7 9 9 3 15 24 26 16 23 26 24 35 39 40 35
72 77 66 50 55 43 30 23 29 27 6 2 6 6 5 6 4 13 12 11 10 5 3 2 3 3 5 2 5 6 6 4 1 5 14 17 28 17 9 16 14 10 14 15
67 53 46 50 54 48 26 9 23 27 20 2 8 4 7 9 10 15 12 6 6 3 4 5 3 1 6 4 3 10 6 8 11 20 28 27 24 11 12 17 14 12 17 17
54 55 49 46 43 32 13 5 13 31 21 3 8 13 10 18 20 13 11 8 2 3 1 6 4 6 6 5 4 6 10 14 22 28 35 25 11 6 11 13 14 20 23 24
55 50 44 46 47 27 5 5 30 30 8 4 4 7 17 22 20 15 10 10 6 5 3 6 14 8 9 6 13 8 18 21 32 24 17 18 12 12 17 18 18 20 26 28
46 47 55 52 30 11 7 20 30 17 5 5 5 10 11 21 16 11 14 10 8 5 8 6 6 10 11 5 8 13 23 16 31 23 21 18 21 25 23 19 18 19 19 19
58 58 20 14 13 33 37 10 8 5 6 6 6 5 10 24 25 19 14 10 6 9 7 8 8 9 10 5 2 13 21 15 31 28 24 26 26 23 17 15 14 13 13 13
17 11 8 30 43 10 5 9 11 10 9 12 9 12 15 10 16 14 6 7 8 6 10 7 9 8 15 11 14 20 20 28 24 20 29 27 24 18 14 13 12 10 10 11
15 22 34 32 9 7 8 8 8 10 8 15 18 18 12 11 3 6 8 5 6 4 14 7 7 10 16 22 25 31 28 31 37 36 35 27 21 16 14 12 11 10 10 11
49 21 12 10 8 5 13 16 7 7 14 17 20 17 15 11 5 5 7 9 6 8 8 7 7 21 23 30 33 33 36 40 40 35 28 24 20 16 13 13 13 12 11 12
8 9 6 8 9 10 6 9 11 11 14 29 29 18 8 9 8 3 8 4 4 6 7 8 13 26 32 34 36 42 42 38 34 29 24 20 16 15 14 14 12 12 13 15
4 5 6 10 4 9 10 9 11 13 18 28 19 12 12 9 6 4 3 8 7 7 3 8 26 35 38 38 39 42 39 34 29 25 20 17 14 13 13 13 14 16 18 19
4 6 7 10 10 13 14 16 15 13 23 21 11 7 7 5 5 9 10 5 6 5 7 16 38 40 34 36 40 37 33 29 26 21 18 15 14 12 13 14 17 18 18 17
4 5 3 4 4 9 13 14 12 15 27 14 9 11 11 8 8 8 5 4 8 8 12 27 39 35 33 38 38 34 31 28 23 20 17 17 16 15 14 17 20 19 18 18
Wind_Direction_500mb
195 198 203 196 195 189 185 192 212 210 152 207 211 226 212 225 224 220 269 286 280 290 199 159 150 154 73 126 178 182 125 264 251 234 71 324 288 304 297 261 240 240 291 285
195 199 199 194 188 183 175 192 150 178 172 229 209 186 223 225 208 213 234 252 300 34 145 138 132 125 84 104 186 148 154 182 239 166 164 160 155 55 216 346 280 263 283 284
187 197 197 191 183 181 176 175 172 163 203 258 279 200 207 207 209 245 254 290 256 236 177 148 154 130 94 87 87 52 291 218 298 316 20 358 274 247 269 273 276 299 279 294
185 194 192 187 181 180 170 191 186 122 179 200 211 209 179 202 196 218 215 231 237 237 181 155 143 130 137 137 143 148 272 247 258 264 270 265 279 284 280 261 265 272 292 299
187 191 189 185 181 179 186 174 178 183 151 168 201 182 193 209 197 221 197 230 215 217 232 204 165 155 166 157 161 172 129 232 261 270 252 254 264 271 278 277 275 274 272 276
189 188 186 185 181 172 173 183 155 219 145 177 202 186 208 201 206 214 245 199 215 212 199 82 80 72 99 131 182 172 227 213 246 265 160 292 263 2 329 324 311 327 301 327
190 185 187 184 181 179 164 178 165 222 166 214 198 181 206 232 218 259 181 218 228 95 133 124 110 107 112 116 80 4 199 244 273 280 275 250 63 30 26 332 298 14 342 337
189 184 186 184 182 182 178 173 149 204 200 209 192 203 226 228 219 213 218 153 131 151 160 153 143 158 173 129 54 89 291 248 234 267 270 325 133 41 2 344 329 9 346 339
184 184 185 183 182 182 183 183 185 152 263 190 58 208 270 220 172 158 145 90 145 166 204 197 206 197 202 168 152 132 161 248 256 214 278 273 68 6 343 308 246 8 358 342
180 187 191 187 182 176 187 196 181 143 240 141 235 214 36 311 235 153 131 114 153 184 198 195 199 169 316 205 220 178 197 228 243 213 267 256 16 338 324 272 352 336 3 358
185 185 190 183 175 182 187 199 182 181 226 276 168 91 60 7 5 267 103 177 155 180 200 215 141 206 140 219 42 253 250 258 202 245 252 241 5 357 343 336 330 336 14 14
184 194 194 176 179 180 188 193 204 202 225 281 240 228 177 231 8 7 46 60 83 50 145 156 128 161 180 247 211 185 241 328 353 322 31 53 50 50 19 14 17 1 10 18
183 192 193 181 183 186 189 198 198 196 231 250 263 185 256 322 59 61 331 103 73 73 103 65 78 209 266 209 202 241 175 190 263 233 81 87 78 66 52 45 53 36 11 4
185 192 194 187 195 185 189 192 194 180 186 247 166 237 249 175 84 117 95 99 81 84 70 86 221 161 242 179 58 279 27 171 194 103 108 111 87 106 90 67 47 50 36 27
189 187 174 184 193 180 179 190 195 192 158 255 159 203 215 201 154 154 120 69 56 51 147 158 126 105 207 177 253 214 174 48 327 74 138 119 150 133 13 353 341 302 266 282
182 176 170 180 170 163 141 166 212 198 198 330 183 147 152 170 148 144 148 107 55 26 330 62 123 26 279 248 139 57 125 98 94 129 133 149 145 138 16 12 19 36 60 48
178 174 181 171 163 145 177 199 197 182 184 227 172 155 156 152 143 145 148 125 89 305 326 236 266 180 249 261 185 82 139 125 122 123 141 159 148 55 23 59 66 67 75 75
148 149 154 154 152 163 158 150 155 159 169 184 219 120 162 171 177 163 170 179 192 179 286 205 231 163 231 252 100 129 140 132 146 135 143 140 131 87 88 92 92 81 73 69
142 143 142 140 149 150 157 143 146 144 151 192 213 181 147 170 173 140 165 214 206 126 232 196 222 196 222 103 132 152 158 153 158 143 131 124 118 112 105 97 81 72 64 60
129 129 137 142 142 128 114 104 148 203 219 204 221 144 144 182 172 180 146 196 197 196 155 133 236 211 102 96 149 158 158 151 154 144 138 132 125 118 105 85 67 54 48 51
143 146 143 149 146 130 146 147 190 173 202 193 175 193 151 171 188 157 237 180 158 231 130 241 180 219 138 138 125 140 141 142 148 140 133 129 124 118 104 87 77 68 57 45
165 132 131 133 168 184 192 179 162 212 180 167 172 156 151 143 134 145 187 215 183 223 133 226 224 104 134 144 131 128 131 130 126 125 122 116 107 98 94 89 77 65 60 52
128 127 152 175 160 185 197 174 172 187 170 169 162 147 154 144 148 167 191 205 183 124 209 216 55 126 142 144 138 129 130 130 125 121 115 106 96 91 86 77 67 62 64 68
169 148 134 214 180 206 180 172 142 125 156 159 165 141 150 142 153 192 198 84 201 219 230 196 128 148 144 144 141 137 137 134 129 124 116 111 104 90 76 67 63 71 75 77
231 221 187 195 133 150 152 149 148 136 146 150 149 135 169 142 141 210 142 181 223 225 206 98 142 148 145 142 143 143 142 138 130 128 124 111 99 93 81 71 81 85 88 88
209 210 187 157 190 151 166 170 155 150 151 150 154 134 157 173 177 190 199 201 220 115 107 127 147 146 144 145 147 146 143 139 134 130 122 111 109 108 103 102 102 105 102 102
215 146 140 168 100 127 146 163 159 161 167 173 134 182 164 136 202 191 207 205 69 96 125 144 154 150 147 146 147 147 146 143 137 129 124 123 119 112 108 118 120 115 109 102
Wind_Speed_850mb
59 56 56 52 42 32 24 11 10 6 25 16 11 17 13 3 11 9 5 7 6 2 4 12 11 17 9 5 9 12 4 6 11 12 11 5 14 20 7 14 19 17 17 23
64 54 55 52 43 37 23 13 9 12 13 12 15 11 19 10 12 11 5 4 3 1 5 6 18 20 11 6 4 4 8 5 12 19 17 11 4 4 6 4 7 21 19 18
60 58 56 51 44 39 29 13 11 11 16 7 11 15 16 19 16 17 11 8 6 6 9 3 18 23 9 10 11 7 2 2 11 18 16 9 9 6 11 10 13 17 17 24
58 56 56 52 46 41 27 12 5 2 12 19 16 11 5 21 14 19 15 13 16 7 10 15 16 20 21 11 9 4 4 9 10 11 13 14 17 20 18 18 21 25 25 30
63 63 57 53 49 43 19 12 7 9 10 8 23 15 19 17 16 12 21 21 19 16 9 3 18 18 12 7 10 4 0 7 11 19 11 14 19 23 26 26 26 24 26 27
62 63 59 57 52 43 14 13 13 7 17 14 18 20 17 13 8 19 10 23 15 20 14 2 15 11 11 8 7 7 5 4 10 20 6 15 23 10 13 20 23 26 27 31
70 64 60 58 54 47 16 26 11 9 12 14 14 12 13 13 14 8 10 17 17 8 15 22 21 18 16 13 11 5 6 6 5 12 10 21 19 16 12 22 24 28 30 34
76 68 63 60 56 47 26 21 10 8 8 11 11 13 8 11 12 18 10 6 1 16 18 18 18 13 11 8 6 2 7 8 4 9 11 13 14 18 17 19 19 27 29 32
79 67 64 59 52 44 30 24 18 5 6 11 5 6 2 5 12 15 11 6 8 16 14 12 18 15 9 11 12 4 6 7 11 5 9 7 16 17 25 17 21 45 43 38
82 80 64 63 55 40 31 23 16 7 7 1 1 1 4 2 4 5 10 5 11 5 13 13 12 8 4 9 9 9 10 9 14 9 10 4 15 28 28 13 15 51 31 45
76 74 68 57 47 39 31 21 16 14 8 3 2 3 5 4 5 2 8 8 6 9 7 7 6 6 5 6 4 4 8 7 9 5 10 13 32 5 16 21 34 22 18 26
84 84 63 53 57 40 29 20 24 22 7 5 7 4 2 3 5 6 6 7 6 6 3 3 4 4 7 6 8 6 7 6 8 7 10 14 18 19 16 18 17 32 23 25
82 81 62 52 40 46 38 27 26 18 7 15 8 3 2 1 5 4 6 8 4 6 1 4 4 4 6 9 5 4 8 4 5 6 14 21 18 20 26 25 43 37 30 28
78 71 72 61 59 44 38 22 28 19 6 7 9 9 3 3 4 9 11 12 14 8 4 2 0 3 4 2 5 7 9 9 3 15 24 26 16 23 26 24 35 39 40 35
72 77 66 50 55 43 30 23 29 27 6 2 6 6 5 6 4 13 12 11 10 5 3 2 3 3 5 2 5 6 6 4 1 5 14 17 28 17 9 16 14 10 14 15
67 53 46 50 54 48 26 9 23 27 20 2 8 4 7 9 10 15 12 6 6 3 4 5 3 1 6 4 3 10 6 8 11 20 28 27 24 11 12 17 14 12 17 17
54 55 49 46 43 32 13 5 13 31 21 3 8 13 10 18 20 13 11 8 2 3 1 6 4 6 6 5 4 6 10 14 22 28 35 25 11 6 11 13 14 20 23 24
55 50 44 46 47 27 5 5 30 30 8 4 4 7 17 22 20 15 10 10 6 5 3 6 14 8 9 6 13 8 18 21 32 24 17 18 12 12 17 18 18 20 26 28
46 47 55 52 30 11 7 20 30 17 5 5 5 10 11 21 16 11 14 10 8 5 8 6 6 10 11 5 8 13 23 16 31 23 21 18 21 25 23 19 18 19 19 19
58 58 20 14 13 33 37 10 8 5 6 6 6 5 10 24 25 19 14 10 6 9 7 8 8 9 10 5 2 13 21 15 31 28 24 26 26 23 17 15 14 13 13 13
17 11 8 30 43 10 5 9 11 10 9 12 9 12 15 10 16 14 6 7 8 6 10 7 9 8 15 11 14 20 20 28 24 20 29 27 24 18 14 13 12 10 10 11
15 22 34 32 9 7 8 8 8 10 8 15 18 18 12 11 3 6 8 5 6 4 14 7 7 10 16 22 25 31 28 31 37 36 35 27 21 16 14 12 11 10 10 11
49 21 12 10 8 5 13 16 7 7 14 17 20 17 15 11 5 5 7 9 6 8 8 7 7 21 23 30 33 33 36 40 40 35 28 24 20 16 13 13 13 12 11 12
8 9 6 8 9 10 6 9 11 11 14 29 29 18 8 9 8 3 8 4 4 6 7 8 13 26 32 34 36 42 42 38 34 29 24 20 16 15 14 14 12 12 13 15
4 5 6 10 4 9 10 9 11 13 18 28 19 12 12 9 6 4 3 8 7 7 3 8 26 35 38 38 39 42 39 34 29 25 20 17 14 13 13 13 14 16 18 19
4 6 7 10 10 13 14 16 15 13 23 21 11 7 7 5 5 9 10 5 6 5 7 16 38 40 34 36 40 37 33 29 26 21 18 15 14 12 13 14 17 18 18 17
4 5 3 4 4 9 13 14 12 15 27 14 9 11 11 8 8 8 5 4 8 8 12 27 39 35 33 38 38 34 31 28 23 20 17 17 16 15 14 17 20 19 18 18
Wind_Direction_850mb
195 198 203 196 195 189 185 192 212 210 152 207 211 226 212 225 224 220 269 286 280 290 199 159 150 154 73 126 178 182 125 264 251 234 71 324 288 304 297 261 240 240 291 285
195 199 199 194 188 183 175 192 150 178 172 229 209 186 223 225 208 213 234 252 300 34 145 138 132 125 84 104 186 148 154 182 239 166 164 160 155 55 216 346 280 263 283 284
187 197 197 191 183 181 176 175 172 163 203 258 279 200 207 207 209 245 254 290 256 236 177 148 154 130 94 87 87 52 291 218 298 316 20 358 274 247 269 273 276 299 279 294
185 194 192 187 181 180 170 191 186 122 179 200 211 209 179 202 196 218 215 231 237 237 181 155 143 130 137 137 143 148 272 247 258 264 270 265 279 284 280 261 265 272 292 299
187 191 189 185 181 179 186 174 178 183 151 168 201 182 193 209 197 221 197 230 215 217 232 204 165 155 166 157 161 172 129 232 261 270 252 254 264 271 278 277 275 274 272 276
189 188 186 185 181 172 173 183 155 219 145 177 202 186 208 201 206 214 245 199 215 212 199 82 80 72 99 131 182 172 227 213 246 265 160 292 263 2 329 324 311 327 301 327
190 185 187 184 181 179 164 178 165 222 166 214 198 181 206 232 218 259 181 218 228 95 133 124 110 107 112 116 80 4 199 244 273 280 275 250 63 30 26 332 298 14 342 337
189 184 186 184 182 182 178 173 149 204 200 209 192 203 226 228 219 213 218 153 131 151 160 153 143 158 173 129 54 89 291 248 234 267 270 325 133 41 2 344 329 9 346 339
184 184 185 183 182 182 183 183 185 152 263 190 58 208 270 220 172 158 145 90 145 166 204 197 206 197 202 168 152 132 161 248 256 214 278 273 68 6 343 308 246 8 358 342
180 187 191 187 182 176 187 196 181 143 240 141 235 214 36 311 235 153 131 114 153 184 198 195 199 169 316 205 220 178 197 228 243 213 267 256 16 338 324 272 352 336 3 358
185 185 190 183 175 182 187 199 182 181 226 276 168 91 60 7 5 267 103 177 155 180 200 215 141 206 140 219 42 253 250 258 202 245 252 241 5 357 343 336 330 336 14 14
184 194 194 176 179 180 188 193 204 202 225 281 240 228 177 231 8 7 46 60 83 50 145 156 128 161 180 247 211 185 241 328 353 322 31 53 50 50 19 14 17 1 10 18
183 192 193 181 183 186 189 198 198 196 231 250 263 185 256 322 59 61 331 103 73 73 103 65 78 209 266 209 202 241 175 190 263 233 81 87 78 66 52 45 53 36 11 4
185 192 194 187 195 185 189 192 194 180 186 247 166 237 249 175 84 117 95 99 81 84 70 86 221 161 242 179 58 279 27 171 194 103 108 111 87 106 90 67 47 50 36 27
189 187 174 184 193 180 179 190 195 192 158 255 159 203 215 201 154 154 120 69 56 51 147 158 126 105 207 177 253 214 174 48 327 74 138 119 150 133 13 353 341 302 266 282
182 176 170 180 170 163 141 166 212 198 198 330 183 147 152 170 148 144 148 107 55 26 330 62 123 26 279 248 139 57 125 98 94 129 133 149 145 138 16 12 19 36 60 48
178 174 181 171 163 145 177 199 197 182 184 227 172 155 156 152 143 145 148 125 89 305 326 236 266 180 249 261 185 82 139 125 122 123 141 159 148 55 23 59 66 67 75 75
148 149 154 154 152 163 158 150 155 159 169 184 219 120 162 171 177 163 170 179 192 179 286 205 231 163 231 252 100 129 140 132 146 135 143 140 131 87 88 92 92 81 73 69
142 143 142 140 149 150 157 143 146 144 151 192 213 181 147 170 173 140 165 214 206 126 232 196 222 196 222 103 132 152 158 153 158 143 131 124 118 112 105 97 81 72 64 60
129 129 137 142 142 128 114 104 148 203 219 204 221 144 144 182 172 180 146 196 197 196 155 133 236 211 102 96 149 158 158 151 154 144 138 132 125 118 105 85 67 54 48 51
143 146 143 149 146 130 146 147 190 173 202 193 175 193 151 171 188 157 237 180 158 231 130 241 180 219 138 138 125 140 141 142 148 140 133 129 124 118 104 87 77 68 57 45
165 132 131 133 168 184 192 179 162 212 180 167 172 156 151 143 134 145 187 215 183 223 133 226 224 104 134 144 131 128 131 130 126 125 122 116 107 98 94 89 77 65 60 52
128 127 152 175 160 185 197 174 172 187 170 169 162 147 154 144 148 167 191 205 183 124 209 216 55 126 142 144 138 129 130 130 125 121 115 106 96 91 86 77 67 62 64 68
169 148 134 214 180 206 180 172 142 125 156 159 165 141 150 142 153 192 198 84 201 219 230 196 128 148 144 144 141 137 137 134 129 124 116 111 104 90 76 67 63 71 75 77
231 221 187 195 133 150 152 149 148 136 146 150 149 135 169 142 141 210 142 181 223 225 206 98 142 148 145 142 143 143 142 138 130 128 124 111 99 93 81 71 81 85 88 88
209 210 187 157 190 151 166 170 155 150 151 150 154 134 157 173 177 190 199 201 220 115 107 127 147 146 144 145 147 146 143 139 134 130 122 111 109 108 103 102 102 105 102 102
215 146 140 168 100 127 146 163 159 161 167 173 134 182 164 136 202 191 207 205 69 96 125 144 154 150 147 146 147 147 146 143 137 129 124 123 119 112 108 118 120 115 109 102